,,,PA_Meas_PMT16A,,PR_Meas_QMR101_102,,RH_Meas_QMH101,,SR_Meas_QMS101,,TA_Meas_QMH101,,GenWind,,GenWind,
date,time,status,PA,status,PR,status,RH,status,SR,status,TA,status,DirAvg,status,SpdAvg,
2010-02-21, 00:00:04,VALID,1012.31,VALID,0,VALID,93.5832,VALID,0,VALID,24.2591,VALID,137,VALID,0,
2010-02-21, 00:01:04,VALID,1012.27,VALID,0,VALID,93.5756,VALID,0.105969,VALID,24.2378,VALID,137,VALID,0,
2010-02-21, 00:02:04,VALID,1012.27,VALID,0,VALID,93.5756,VALID,0,VALID,24.2591,VALID,137,VALID,0,
2010-02-21, 00:03:04,VALID,1012.27,VALID,0,VALID,93.5527,VALID,0,VALID,24.2396,VALID,137,VALID,0,
2010-02-21, 00:04:04,VALID,1012.25,VALID,0,VALID,93.5604,VALID,0,VALID,24.2396,VALID,137,VALID,0,
2010-02-21, 00:05:04,VALID,1012.26,VALID,0,VALID,93.5604,VALID,0,VALID,24.2378,VALID,137,VALID,0,
2010-02-21, 00:06:04,VALID,1012.23,VALID,0,VALID,93.568,VALID,0,VALID,24.2591,VALID,137,VALID,0,
2010-02-21, 00:07:04,VALID,1012.22,VALID,0,VALID,93.568,VALID,0,VALID,24.2396,VALID,137,VALID,0,
2010-02-21, 00:08:04,VALID,1012.24,VALID,0,VALID,93.5756,VALID,0,VALID,24.2396,VALID,137,VALID,0,
2010-02-21, 00:09:04,VALID,1012.21,VALID,0,VALID,93.5604,VALID,0,VALID,24.2396,VALID,137,VALID,0,
2010-02-21, 00:10:04,VALID,1012.2,VALID,0,VALID,93.568,VALID,0,VALID,24.261,VALID,137,VALID,0,
2010-02-21, 00:11:04,VALID,1012.19,VALID,0,VALID,93.568,VALID,0,VALID,24.2396,VALID,137,VALID,0,
2010-02-21, 00:12:04,VALID,1012.17,VALID,0,VALID,93.568,VALID,0,VALID,24.2396,VALID,137,VALID,0,
2010-02-21, 00:13:04,VALID,1012.17,VALID,0,VALID,93.568,VALID,0,VALID,24.2396,VALID,137,VALID,0,
2010-02-21, 00:14:04,VALID,1012.17,VALID,0,VALID,93.5527,VALID,0,VALID,24.2202,VALID,137,VALID,0,
2010-02-21, 00:15:04,VALID,1012.12,VALID,0,VALID,93.568,VALID,0,VALID,24.2202,VALID,137,VALID,0,
2010-02-21, 00:16:04,VALID,1012.12,VALID,0,VALID,93.5527,VALID,0,VALID,24.2396,VALID,137,VALID,0,
2010-02-21, 00:17:04,VALID,1012.11,VALID,0,VALID,93.568,VALID,0,VALID,24.2202,VALID,137,VALID,0,
2010-02-21, 00:18:04,VALID,1012.11,VALID,0,VALID,93.5604,VALID,0,VALID,24.2202,VALID,137,VALID,0,
2010-02-21, 00:19:04,VALID,1012.07,VALID,0,VALID,93.5756,VALID,0.105969,VALID,24.2202,VALID,137,VALID,0,
2010-02-21, 00:20:04,VALID,1012.08,VALID,0,VALID,93.5832,VALID,0,VALID,24.2202,VALID,137,VALID,0,
2010-02-21, 00:21:04,VALID,1012.07,VALID,0,VALID,93.5832,VALID,0,VALID,24.2396,VALID,137,VALID,0,
2010-02-21, 00:22:04,VALID,1012.09,VALID,0,VALID,93.5985,VALID,0.105969,VALID,24.2396,VALID,135,VALID,0,
2010-02-21, 00:23:04,VALID,1012.09,VALID,0,VALID,93.5985,VALID,0,VALID,24.2396,VALID,136,VALID,0,
2010-02-21, 00:24:04,VALID,1012.09,VALID,0,VALID,93.6137,VALID,0,VALID,24.2202,VALID,136,VALID,0,
2010-02-21, 00:25:04,VALID,1012.11,VALID,0,VALID,93.6137,VALID,0,VALID,24.2202,VALID,136,VALID,0,
2010-02-21, 00:26:04,VALID,1012.12,VALID,0,VALID,93.629,VALID,0,VALID,24.2396,VALID,136,VALID,0,
2010-02-21, 00:27:04,VALID,1012.12,VALID,0,VALID,93.6214,VALID,0,VALID,24.2396,VALID,136,VALID,0,
2010-02-21, 00:28:04,VALID,1012.12,VALID,0,VALID,93.629,VALID,0,VALID,24.2396,VALID,136,VALID,0,
2010-02-21, 00:29:04,VALID,1012.13,VALID,0,VALID,93.629,VALID,0,VALID,24.2396,VALID,135,VALID,0,
2010-02-21, 00:30:04,VALID,1012.13,VALID,0,VALID,93.629,VALID,0,VALID,24.2396,VALID,136,VALID,0,
2010-02-21, 00:31:04,VALID,1012.13,VALID,0,VALID,93.629,VALID,0,VALID,24.2591,VALID,142,VALID,0,
2010-02-21, 00:32:04,VALID,1012.12,VALID,0,VALID,93.6214,VALID,0.105969,VALID,24.2591,VALID,165,VALID,0,
2010-02-21, 00:33:04,VALID,1012.11,VALID,0,VALID,93.5985,VALID,0,VALID,24.2396,VALID,170,VALID,0,
2010-02-21, 00:34:04,VALID,1012.11,VALID,0,VALID,93.568,VALID,0,VALID,24.2591,VALID,170,VALID,0,
2010-02-21, 00:35:04,VALID,1012.1,VALID,0,VALID,93.5832,VALID,0,VALID,24.2591,VALID,170,VALID,0,
2010-02-21, 00:36:04,VALID,1012.11,VALID,0,VALID,93.5756,VALID,0,VALID,24.2786,VALID,170,VALID,0,
2010-02-21, 00:37:04,VALID,1012.08,VALID,0,VALID,93.568,VALID,0,VALID,24.2786,VALID,170,VALID,0,
2010-02-21, 00:38:04,VALID,1012.07,VALID,0,VALID,93.5756,VALID,0,VALID,24.2591,VALID,170,VALID,0,
2010-02-21, 00:39:04,VALID,1012.06,VALID,0,VALID,93.568,VALID,0,VALID,24.2573,VALID,170,VALID,0,
2010-02-21, 00:40:04,VALID,1012.07,VALID,0,VALID,93.5756,VALID,0,VALID,24.2786,VALID,170,VALID,0,
2010-02-21, 00:41:04,VALID,1012.05,VALID,0,VALID,93.5756,VALID,0,VALID,24.2591,VALID,170,VALID,0,
2010-02-21, 00:42:04,VALID,1012.03,VALID,0,VALID,93.5756,VALID,0,VALID,24.2591,VALID,170,VALID,0,
2010-02-21, 00:43:04,VALID,1012.03,VALID,0,VALID,93.6366,VALID,0,VALID,24.2591,VALID,170,VALID,0,
2010-02-21, 00:44:04,VALID,1012.01,VALID,0,VALID,93.6519,VALID,0,VALID,24.2396,VALID,170,VALID,0,
2010-02-21, 00:45:04,VALID,1011.98,VALID,0,VALID,93.6442,VALID,0,VALID,24.2591,VALID,170,VALID,0,
2010-02-21, 00:46:04,VALID,1011.98,VALID,0,VALID,93.6595,VALID,0,VALID,24.2591,VALID,170,VALID,0,
2010-02-21, 00:47:04,VALID,1011.96,VALID,0,VALID,93.69,VALID,0.105969,VALID,24.2591,VALID,170,VALID,0,
2010-02-21, 00:48:04,VALID,1011.92,VALID,0,VALID,93.7129,VALID,0,VALID,24.2591,VALID,170,VALID,0,
2010-02-21, 00:49:04,VALID,1011.92,VALID,0,VALID,93.7205,VALID,0,VALID,24.2591,VALID,170,VALID,0,
2010-02-21, 00:50:04,VALID,1011.93,VALID,0,VALID,93.7281,VALID,0,VALID,24.2591,VALID,194,VALID,0,
2010-02-21, 00:51:04,VALID,1011.93,VALID,0,VALID,93.7358,VALID,0,VALID,24.2591,VALID,196,VALID,0,
2010-02-21, 00:52:04,VALID,1011.93,VALID,0,VALID,93.7129,VALID,0,VALID,24.2591,VALID,196,VALID,0,
2010-02-21, 00:53:04,VALID,1011.91,VALID,0,VALID,93.7129,VALID,0.105969,VALID,24.2591,VALID,196,VALID,0,
2010-02-21, 00:54:04,VALID,1011.89,VALID,0,VALID,93.7053,VALID,0,VALID,24.2591,VALID,196,VALID,0,
2010-02-21, 00:55:04,VALID,1011.89,VALID,0,VALID,93.7129,VALID,0,VALID,24.2591,VALID,196,VALID,0,
2010-02-21, 00:56:04,VALID,1011.92,VALID,0,VALID,93.7053,VALID,0,VALID,24.2591,VALID,195,VALID,0,
2010-02-21, 00:57:04,VALID,1011.91,VALID,0,VALID,93.7129,VALID,0,VALID,24.2591,VALID,195,VALID,0,
2010-02-21, 00:58:04,VALID,1011.91,VALID,0,VALID,93.7129,VALID,0,VALID,24.2591,VALID,195,VALID,0,
2010-02-21, 00:59:04,VALID,1011.91,VALID,0,VALID,93.7129,VALID,0,VALID,24.2396,VALID,195,VALID,0,
2010-02-21, 01:00:04,VALID,1011.93,VALID,0,VALID,93.7281,VALID,0,VALID,24.2591,VALID,195,VALID,0,
2010-02-21, 01:01:04,VALID,1011.93,VALID,0,VALID,93.7434,VALID,0.105969,VALID,24.2378,VALID,195,VALID,0,
2010-02-21, 01:02:04,VALID,1011.93,VALID,0,VALID,93.7281,VALID,0.105969,VALID,24.2591,VALID,195,VALID,0,
2010-02-21, 01:03:04,VALID,1011.9,VALID,0,VALID,93.7434,VALID,0,VALID,24.2591,VALID,195,VALID,0,
2010-02-21, 01:04:04,VALID,1011.88,VALID,0,VALID,93.751,VALID,0,VALID,24.2396,VALID,194,VALID,0,
2010-02-21, 01:05:04,VALID,1011.87,VALID,0,VALID,93.7663,VALID,0.105969,VALID,24.2183,VALID,194,VALID,0,
2010-02-21, 01:06:04,VALID,1011.87,VALID,0,VALID,93.751,VALID,0,VALID,24.261,VALID,194,VALID,0,
2010-02-21, 01:07:04,VALID,1011.88,VALID,0,VALID,93.7815,VALID,0,VALID,24.2378,VALID,194,VALID,0,
2010-02-21, 01:08:04,VALID,1011.86,VALID,0,VALID,93.7739,VALID,0,VALID,24.2591,VALID,194,VALID,0,
2010-02-21, 01:09:04,VALID,1011.84,VALID,0,VALID,93.7739,VALID,0,VALID,24.2591,VALID,171,VALID,0,
2010-02-21, 01:10:04,VALID,1011.86,VALID,0,VALID,93.751,VALID,0.105969,VALID,24.2591,VALID,159,VALID,0,
2010-02-21, 01:11:04,VALID,1011.83,VALID,0,VALID,93.7358,VALID,0.105969,VALID,24.2573,VALID,159,VALID,0,
2010-02-21, 01:12:04,VALID,1011.82,VALID,0,VALID,93.7358,VALID,0,VALID,24.2786,VALID,136,VALID,0,
2010-02-21, 01:13:04,VALID,1011.82,VALID,0,VALID,93.69,VALID,0,VALID,24.2981,VALID,136,VALID,0,
2010-02-21, 01:14:04,VALID,1011.82,VALID,0,VALID,93.6748,VALID,0.105969,VALID,24.3176,VALID,135,VALID,0,
2010-02-21, 01:15:04,VALID,1011.8,VALID,0,VALID,93.6976,VALID,0,VALID,24.3176,VALID,121,VALID,0,
2010-02-21, 01:16:04,VALID,1011.78,VALID,0,VALID,93.6748,VALID,0,VALID,24.3176,VALID,114,VALID,0,
2010-02-21, 01:17:04,VALID,1011.79,VALID,0,VALID,93.6748,VALID,0,VALID,24.3371,VALID,114,VALID,0,
2010-02-21, 01:18:04,VALID,1011.75,VALID,0,VALID,93.6442,VALID,0,VALID,24.3371,VALID,114,VALID,0,
2010-02-21, 01:19:04,VALID,1011.78,VALID,0,VALID,93.6061,VALID,0,VALID,24.3566,VALID,114,VALID,0,
2010-02-21, 01:20:04,VALID,1011.77,VALID,0,VALID,93.568,VALID,0.105969,VALID,24.3371,VALID,114,VALID,0,
2010-02-21, 01:21:04,VALID,1011.75,VALID,0,VALID,93.5604,VALID,0,VALID,24.3566,VALID,114,VALID,0,
2010-02-21, 01:22:04,VALID,1011.74,VALID,0,VALID,93.5451,VALID,0,VALID,24.3566,VALID,123,VALID,0,
2010-02-21, 01:23:04,VALID,1011.77,VALID,0,VALID,93.507,VALID,0,VALID,24.3352,VALID,121,VALID,0,
2010-02-21, 01:24:04,VALID,1011.75,VALID,0,VALID,93.507,VALID,0,VALID,24.3371,VALID,119,VALID,0,
2010-02-21, 01:25:04,VALID,1011.74,VALID,0,VALID,93.5527,VALID,0.105969,VALID,24.3158,VALID,119,VALID,0,
2010-02-21, 01:26:04,VALID,1011.75,VALID,0,VALID,93.5527,VALID,0,VALID,24.3176,VALID,113,VALID,0,
2010-02-21, 01:27:04,VALID,1011.71,VALID,0,VALID,93.5527,VALID,0.105969,VALID,24.3176,VALID,113,VALID,0,
2010-02-21, 01:28:04,VALID,1011.71,VALID,0,VALID,93.5299,VALID,0,VALID,24.2981,VALID,113,VALID,0,
2010-02-21, 01:29:04,VALID,1011.69,VALID,0,VALID,93.5604,VALID,0,VALID,24.2786,VALID,113,VALID,0,
2010-02-21, 01:30:04,VALID,1011.7,VALID,0,VALID,93.5604,VALID,0.105969,VALID,24.2786,VALID,113,VALID,0,
2010-02-21, 01:31:04,VALID,1011.7,VALID,0,VALID,93.5909,VALID,0,VALID,24.2573,VALID,113,VALID,0,
2010-02-21, 01:32:04,VALID,1011.72,VALID,0,VALID,93.6214,VALID,0,VALID,24.2591,VALID,59,VALID,0,
2010-02-21, 01:33:04,VALID,1011.7,VALID,0,VALID,93.6519,VALID,0,VALID,24.2202,VALID,31,VALID,0,
2010-02-21, 01:34:04,VALID,1011.68,VALID,0,VALID,93.6595,VALID,0,VALID,24.2007,VALID,47,VALID,0,
2010-02-21, 01:35:04,VALID,1011.67,VALID,0,VALID,93.69,VALID,0,VALID,24.1599,VALID,47,VALID,0,
2010-02-21, 01:36:04,VALID,1011.68,VALID,0,VALID,93.7053,VALID,0.105969,VALID,24.1404,VALID,47,VALID,0,
2010-02-21, 01:37:04,VALID,1011.67,VALID,0,VALID,93.751,VALID,0,VALID,24.1422,VALID,47,VALID,0,
2010-02-21, 01:38:04,VALID,1011.69,VALID,0,VALID,93.7739,VALID,0.105969,VALID,24.1422,VALID,47,VALID,0,
2010-02-21, 01:39:04,VALID,1011.68,VALID,0,VALID,93.7968,VALID,0.105969,VALID,24.1422,VALID,47,VALID,0,
2010-02-21, 01:40:04,VALID,1011.71,VALID,0,VALID,93.812,VALID,0,VALID,24.1014,VALID,47,VALID,0,
2010-02-21, 01:41:04,VALID,1011.72,VALID,0,VALID,93.8273,VALID,0,VALID,24.1227,VALID,47,VALID,0,
2010-02-21, 01:42:04,VALID,1011.72,VALID,0,VALID,93.8578,VALID,0,VALID,24.1227,VALID,47,VALID,0,
2010-02-21, 01:43:04,VALID,1011.72,VALID,0,VALID,93.8807,VALID,0,VALID,24.1032,VALID,47,VALID,0,
2010-02-21, 01:44:04,VALID,1011.71,VALID,0,VALID,93.8883,VALID,0,VALID,24.1032,VALID,47,VALID,0,
2010-02-21, 01:45:04,VALID,1011.7,VALID,0,VALID,93.9188,VALID,0,VALID,24.0819,VALID,47,VALID,0,
2010-02-21, 01:46:04,VALID,1011.74,VALID,0,VALID,93.9264,VALID,0,VALID,24.1032,VALID,47,VALID,0,
2010-02-21, 01:47:04,VALID,1011.72,VALID,0,VALID,93.934,VALID,0.105969,VALID,24.1032,VALID,47,VALID,0,
2010-02-21, 01:48:04,VALID,1011.72,VALID,0,VALID,93.9493,VALID,0.105969,VALID,24.0624,VALID,47,VALID,0,
2010-02-21, 01:49:04,VALID,1011.72,VALID,0,VALID,93.9722,VALID,0.105969,VALID,24.0643,VALID,47,VALID,0,
2010-02-21, 01:50:04,VALID,1011.7,VALID,0,VALID,93.9874,VALID,0,VALID,24.0235,VALID,55,VALID,0,
2010-02-21, 01:51:04,VALID,1011.72,VALID,0,VALID,93.9798,VALID,0,VALID,24.0448,VALID,57,VALID,0,
2010-02-21, 01:52:04,VALID,1011.7,VALID,0,VALID,93.995,VALID,0,VALID,24.0448,VALID,57,VALID,0,
2010-02-21, 01:53:04,VALID,1011.71,VALID,0,VALID,94.0103,VALID,0,VALID,24.0253,VALID,57,VALID,0,
2010-02-21, 01:54:04,VALID,1011.7,VALID,0,VALID,94.0332,VALID,0.105969,VALID,24.0253,VALID,57,VALID,0,
2010-02-21, 01:55:04,VALID,1011.7,VALID,0,VALID,94.0408,VALID,0,VALID,24.004,VALID,57,VALID,0,
2010-02-21, 01:56:04,VALID,1011.71,VALID,0,VALID,94.0332,VALID,0,VALID,24.004,VALID,57,VALID,0,
2010-02-21, 01:57:04,VALID,1011.67,VALID,0,VALID,94.0408,VALID,0,VALID,24.004,VALID,57,VALID,0,
2010-02-21, 01:58:04,VALID,1011.67,VALID,0,VALID,94.0637,VALID,0.105969,VALID,24.0271,VALID,56,VALID,0,
2010-02-21, 01:59:04,VALID,1011.69,VALID,0,VALID,94.0408,VALID,0,VALID,24.0058,VALID,51,VALID,0,
2010-02-21, 02:00:04,VALID,1011.7,VALID,0,VALID,94.0713,VALID,0,VALID,23.965,VALID,39,VALID,0,
2010-02-21, 02:01:04,VALID,1011.69,VALID,0,VALID,94.0713,VALID,0,VALID,23.9863,VALID,32,VALID,0,
2010-02-21, 02:02:04,VALID,1011.67,VALID,0,VALID,94.0713,VALID,0,VALID,23.9668,VALID,32,VALID,0,
2010-02-21, 02:03:04,VALID,1011.68,VALID,0,VALID,94.0942,VALID,0.105969,VALID,23.9473,VALID,32,VALID,0,
2010-02-21, 02:04:04,VALID,1011.65,VALID,0,VALID,94.0713,VALID,0,VALID,23.9278,VALID,32,VALID,0,
2010-02-21, 02:05:04,VALID,1011.68,VALID,0,VALID,94.0865,VALID,0,VALID,23.9278,VALID,32,VALID,0,
2010-02-21, 02:06:04,VALID,1011.66,VALID,0,VALID,94.0637,VALID,0,VALID,23.9084,VALID,32,VALID,0,
2010-02-21, 02:07:04,VALID,1011.67,VALID,0,VALID,94.0713,VALID,0,VALID,23.9278,VALID,32,VALID,0,
2010-02-21, 02:08:04,VALID,1011.66,VALID,0,VALID,94.0713,VALID,0,VALID,23.9084,VALID,32,VALID,0,
2010-02-21, 02:09:04,VALID,1011.64,VALID,0,VALID,94.0789,VALID,0,VALID,23.9084,VALID,32,VALID,0,
2010-02-21, 02:10:04,VALID,1011.6,VALID,0,VALID,94.1018,VALID,0,VALID,23.9084,VALID,32,VALID,0,
2010-02-21, 02:11:04,VALID,1011.61,VALID,0,VALID,94.0942,VALID,0,VALID,23.9084,VALID,32,VALID,0,
2010-02-21, 02:12:04,VALID,1011.61,VALID,0,VALID,94.0942,VALID,0,VALID,23.9084,VALID,32,VALID,0,
2010-02-21, 02:13:04,VALID,1011.59,VALID,0,VALID,94.1018,VALID,0.105969,VALID,23.8871,VALID,32,VALID,0,
2010-02-21, 02:14:04,VALID,1011.59,VALID,0,VALID,94.1094,VALID,0,VALID,23.8889,VALID,32,VALID,0,
2010-02-21, 02:15:04,VALID,1011.58,VALID,0,VALID,94.0865,VALID,0,VALID,23.8889,VALID,32,VALID,0,
2010-02-21, 02:16:04,VALID,1011.57,VALID,0,VALID,94.0942,VALID,0.105969,VALID,23.8889,VALID,32,VALID,0,
2010-02-21, 02:17:04,VALID,1011.6,VALID,0,VALID,94.1018,VALID,0.105969,VALID,23.8676,VALID,32,VALID,0,
2010-02-21, 02:18:04,VALID,1011.58,VALID,0,VALID,94.1094,VALID,0.105969,VALID,23.8694,VALID,32,VALID,0,
2010-02-21, 02:19:04,VALID,1011.58,VALID,0,VALID,94.0942,VALID,0,VALID,23.8694,VALID,32,VALID,0,
2010-02-21, 02:20:04,VALID,1011.57,VALID,0,VALID,94.1094,VALID,0.105969,VALID,23.8694,VALID,32,VALID,0,
2010-02-21, 02:21:04,VALID,1011.59,VALID,0,VALID,94.1247,VALID,0,VALID,23.8481,VALID,32,VALID,0,
2010-02-21, 02:22:04,VALID,1011.58,VALID,0,VALID,94.1094,VALID,0,VALID,23.8694,VALID,32,VALID,0,
2010-02-21, 02:23:04,VALID,1011.58,VALID,0,VALID,94.1018,VALID,0,VALID,23.8694,VALID,32,VALID,0,
2010-02-21, 02:24:04,VALID,1011.54,VALID,0,VALID,94.0942,VALID,0,VALID,23.8694,VALID,32,VALID,0,
2010-02-21, 02:25:04,VALID,1011.56,VALID,0,VALID,94.1018,VALID,0,VALID,23.8499,VALID,32,VALID,0,
2010-02-21, 02:26:04,VALID,1011.53,VALID,0,VALID,94.1018,VALID,0,VALID,23.8499,VALID,32,VALID,0,
2010-02-21, 02:27:04,VALID,1011.52,VALID,0,VALID,94.0865,VALID,0,VALID,23.8499,VALID,32,VALID,0,
2010-02-21, 02:28:04,VALID,1011.49,VALID,0,VALID,94.1171,VALID,0,VALID,23.8304,VALID,32,VALID,0,
2010-02-21, 02:29:04,VALID,1011.47,VALID,0,VALID,94.1171,VALID,0,VALID,23.8091,VALID,32,VALID,0,
2010-02-21, 02:30:04,VALID,1011.45,VALID,0,VALID,94.1171,VALID,0,VALID,23.8304,VALID,32,VALID,0,
2010-02-21, 02:31:04,VALID,1011.44,VALID,0,VALID,94.0789,VALID,0,VALID,23.8091,VALID,32,VALID,0,
2010-02-21, 02:32:04,VALID,1011.45,VALID,0,VALID,94.1018,VALID,0.105969,VALID,23.8304,VALID,32,VALID,0,
2010-02-21, 02:33:04,VALID,1011.44,VALID,0,VALID,94.1018,VALID,0,VALID,23.8304,VALID,32,VALID,0,
2010-02-21, 02:34:04,VALID,1011.4,VALID,0,VALID,94.0713,VALID,0.105969,VALID,23.8499,VALID,32,VALID,0,
2010-02-21, 02:35:04,VALID,1011.41,VALID,0,VALID,94.056,VALID,0,VALID,23.8694,VALID,32,VALID,0,
2010-02-21, 02:36:04,VALID,1011.39,VALID,0,VALID,94.0713,VALID,0,VALID,23.8694,VALID,32,VALID,0,
2010-02-21, 02:37:04,VALID,1011.36,VALID,0,VALID,94.0713,VALID,0.105969,VALID,23.8676,VALID,32,VALID,0,
2010-02-21, 02:38:04,VALID,1011.37,VALID,0,VALID,94.0713,VALID,0,VALID,23.8889,VALID,32,VALID,0,
2010-02-21, 02:39:04,VALID,1011.35,VALID,0,VALID,94.056,VALID,0.105969,VALID,23.8889,VALID,32,VALID,0,
2010-02-21, 02:40:04,VALID,1011.33,VALID,0,VALID,94.0637,VALID,0,VALID,23.8889,VALID,32,VALID,0,
2010-02-21, 02:41:04,VALID,1011.32,VALID,0,VALID,94.0865,VALID,0.105969,VALID,23.8676,VALID,32,VALID,0,
2010-02-21, 02:42:04,VALID,1011.33,VALID,0,VALID,94.0942,VALID,0.105969,VALID,23.8889,VALID,32,VALID,0,
2010-02-21, 02:43:04,VALID,1011.29,VALID,0,VALID,94.0865,VALID,0.105969,VALID,23.8676,VALID,32,VALID,0,
2010-02-21, 02:44:04,VALID,1011.3,VALID,0,VALID,94.0942,VALID,0.105969,VALID,23.8676,VALID,32,VALID,0,
2010-02-21, 02:45:04,VALID,1011.33,VALID,0,VALID,94.1094,VALID,0,VALID,23.8499,VALID,32,VALID,0,
2010-02-21, 02:46:04,VALID,1011.33,VALID,0,VALID,94.0865,VALID,0.105969,VALID,23.8499,VALID,32,VALID,0,
2010-02-21, 02:47:04,VALID,1011.32,VALID,0,VALID,94.1094,VALID,0.105969,VALID,23.8499,VALID,32,VALID,0,
2010-02-21, 02:48:04,VALID,1011.34,VALID,0,VALID,94.1094,VALID,0.105969,VALID,23.8304,VALID,32,VALID,0,
2010-02-21, 02:49:04,VALID,1011.36,VALID,0,VALID,94.0789,VALID,0,VALID,23.8304,VALID,32,VALID,0,
2010-02-21, 02:50:04,VALID,1011.34,VALID,0,VALID,94.0865,VALID,0.105969,VALID,23.8304,VALID,32,VALID,0,
2010-02-21, 02:51:04,VALID,1011.39,VALID,0,VALID,94.0713,VALID,0,VALID,23.8109,VALID,32,VALID,0,
2010-02-21, 02:52:04,VALID,1011.38,VALID,0,VALID,94.0789,VALID,0,VALID,23.8091,VALID,32,VALID,0,
2010-02-21, 02:53:04,VALID,1011.4,VALID,0,VALID,94.0637,VALID,0.105969,VALID,23.8286,VALID,32,VALID,0,
2010-02-21, 02:54:04,VALID,1011.38,VALID,0,VALID,94.056,VALID,0,VALID,23.8304,VALID,32,VALID,0,
2010-02-21, 02:55:04,VALID,1011.39,VALID,0,VALID,94.056,VALID,0,VALID,23.8304,VALID,32,VALID,0,
2010-02-21, 02:56:04,VALID,1011.41,VALID,0,VALID,94.0484,VALID,0,VALID,23.8304,VALID,32,VALID,0,
2010-02-21, 02:57:04,VALID,1011.41,VALID,0,VALID,94.056,VALID,0,VALID,23.8304,VALID,32,VALID,0,
2010-02-21, 02:58:04,VALID,1011.41,VALID,0,VALID,94.0484,VALID,0,VALID,23.8304,VALID,32,VALID,0,
2010-02-21, 02:59:04,VALID,1011.4,VALID,0,VALID,94.0637,VALID,0.105969,VALID,23.8286,VALID,32,VALID,0,
2010-02-21, 03:00:04,VALID,1011.4,VALID,0,VALID,94.056,VALID,0.105969,VALID,23.8304,VALID,32,VALID,0,
2010-02-21, 03:01:04,VALID,1011.41,VALID,0,VALID,94.0484,VALID,0,VALID,23.8304,VALID,32,VALID,0,
2010-02-21, 03:02:04,VALID,1011.41,VALID,0,VALID,94.0484,VALID,0,VALID,23.8304,VALID,32,VALID,0,
2010-02-21, 03:03:04,VALID,1011.4,VALID,0,VALID,94.0255,VALID,0,VALID,23.8499,VALID,32,VALID,0,
2010-02-21, 03:04:04,VALID,1011.41,VALID,0,VALID,94.0408,VALID,0,VALID,23.8286,VALID,32,VALID,0,
2010-02-21, 03:05:04,VALID,1011.44,VALID,0,VALID,94.0332,VALID,0,VALID,23.8304,VALID,32,VALID,0,
2010-02-21, 03:06:04,VALID,1011.42,VALID,0,VALID,94.0408,VALID,0,VALID,23.8304,VALID,32,VALID,0,
2010-02-21, 03:07:04,VALID,1011.44,VALID,0,VALID,94.0408,VALID,0,VALID,23.8304,VALID,32,VALID,0,
2010-02-21, 03:08:04,VALID,1011.46,VALID,0,VALID,94.0713,VALID,0,VALID,23.8109,VALID,32,VALID,0,
2010-02-21, 03:09:04,VALID,1011.46,VALID,0,VALID,94.0637,VALID,0,VALID,23.772,VALID,32,VALID,0,
2010-02-21, 03:10:04,VALID,1011.46,VALID,0,VALID,94.056,VALID,0,VALID,23.7914,VALID,32,VALID,0,
2010-02-21, 03:11:04,VALID,1011.46,VALID,0,VALID,94.056,VALID,0,VALID,23.7914,VALID,32,VALID,0,
2010-02-21, 03:12:04,VALID,1011.48,VALID,0,VALID,94.0637,VALID,0,VALID,23.7914,VALID,32,VALID,0,
2010-02-21, 03:13:04,VALID,1011.51,VALID,0,VALID,94.0484,VALID,0,VALID,23.772,VALID,32,VALID,0,
2010-02-21, 03:14:04,VALID,1011.52,VALID,0,VALID,94.0637,VALID,0,VALID,23.772,VALID,32,VALID,0,
2010-02-21, 03:15:04,VALID,1011.54,VALID,0,VALID,94.0408,VALID,0,VALID,23.7914,VALID,32,VALID,0,
2010-02-21, 03:16:04,VALID,1011.51,VALID,0,VALID,94.0408,VALID,0,VALID,23.7914,VALID,32,VALID,0,
2010-02-21, 03:17:04,VALID,1011.5,VALID,0,VALID,94.0103,VALID,0,VALID,23.7914,VALID,32,VALID,0,
2010-02-21, 03:18:04,VALID,1011.51,VALID,0,VALID,94.0332,VALID,0,VALID,23.7914,VALID,32,VALID,0,
2010-02-21, 03:19:04,VALID,1011.51,VALID,0,VALID,94.0255,VALID,0.105969,VALID,23.7914,VALID,32,VALID,0,
2010-02-21, 03:20:04,VALID,1011.51,VALID,0,VALID,94.0408,VALID,0,VALID,23.7914,VALID,32,VALID,0,
2010-02-21, 03:21:04,VALID,1011.5,VALID,0,VALID,94.0484,VALID,0,VALID,23.772,VALID,32,VALID,0,
2010-02-21, 03:22:04,VALID,1011.5,VALID,0,VALID,94.056,VALID,0,VALID,23.772,VALID,32,VALID,0,
2010-02-21, 03:23:04,VALID,1011.5,VALID,0,VALID,94.0332,VALID,0,VALID,23.7507,VALID,32,VALID,0,
2010-02-21, 03:24:04,VALID,1011.49,VALID,0,VALID,94.0332,VALID,0,VALID,23.7507,VALID,32,VALID,0,
2010-02-21, 03:25:04,VALID,1011.49,VALID,0,VALID,94.0408,VALID,0.105969,VALID,23.7525,VALID,32,VALID,0,
2010-02-21, 03:26:04,VALID,1011.5,VALID,0,VALID,94.0484,VALID,0,VALID,23.7525,VALID,32,VALID,0,
2010-02-21, 03:27:04,VALID,1011.5,VALID,0,VALID,94.0484,VALID,0,VALID,23.772,VALID,32,VALID,0,
2010-02-21, 03:28:04,VALID,1011.5,VALID,0,VALID,94.0408,VALID,0.105969,VALID,23.7507,VALID,32,VALID,0,
2010-02-21, 03:29:04,VALID,1011.52,VALID,0,VALID,94.0255,VALID,0,VALID,23.7525,VALID,32,VALID,0,
2010-02-21, 03:30:04,VALID,1011.52,VALID,0,VALID,94.0179,VALID,0,VALID,23.7525,VALID,32,VALID,0,
2010-02-21, 03:31:04,VALID,1011.51,VALID,0,VALID,94.0255,VALID,0,VALID,23.772,VALID,32,VALID,0,
2010-02-21, 03:32:04,VALID,1011.52,VALID,0,VALID,94.0103,VALID,0,VALID,23.772,VALID,32,VALID,0,
2010-02-21, 03:33:04,VALID,1011.51,VALID,0,VALID,94.0103,VALID,0,VALID,23.7525,VALID,32,VALID,0,
2010-02-21, 03:34:04,VALID,1011.52,VALID,0,VALID,94.0103,VALID,0.105969,VALID,23.7525,VALID,32,VALID,0,
2010-02-21, 03:35:04,VALID,1011.52,VALID,0,VALID,94.0255,VALID,0,VALID,23.7312,VALID,32,VALID,0,
2010-02-21, 03:36:04,VALID,1011.53,VALID,0,VALID,94.0255,VALID,0.105969,VALID,23.733,VALID,32,VALID,0,
2010-02-21, 03:37:04,VALID,1011.54,VALID,0,VALID,94.0332,VALID,0.105969,VALID,23.7135,VALID,32,VALID,0,
2010-02-21, 03:38:04,VALID,1011.54,VALID,0,VALID,94.0332,VALID,0,VALID,23.7135,VALID,32,VALID,0,
2010-02-21, 03:39:04,VALID,1011.54,VALID,0,VALID,94.0255,VALID,0.105969,VALID,23.7135,VALID,32,VALID,0,
2010-02-21, 03:40:04,VALID,1011.55,VALID,0,VALID,94.0255,VALID,0,VALID,23.7135,VALID,32,VALID,0,
2010-02-21, 03:41:04,VALID,1011.55,VALID,0,VALID,94.0408,VALID,0,VALID,23.6922,VALID,32,VALID,0,
2010-02-21, 03:42:04,VALID,1011.56,VALID,0,VALID,94.0255,VALID,0,VALID,23.6922,VALID,32,VALID,0,
2010-02-21, 03:43:04,VALID,1011.58,VALID,0,VALID,94.0408,VALID,0,VALID,23.7135,VALID,32,VALID,0,
2010-02-21, 03:44:04,VALID,1011.54,VALID,0,VALID,94.0179,VALID,0,VALID,23.7135,VALID,32,VALID,0,
2010-02-21, 03:45:04,VALID,1011.58,VALID,0,VALID,93.995,VALID,0,VALID,23.7135,VALID,32,VALID,0,
2010-02-21, 03:46:04,VALID,1011.59,VALID,0,VALID,94.0255,VALID,0,VALID,23.7135,VALID,32,VALID,0,
2010-02-21, 03:47:04,VALID,1011.58,VALID,0,VALID,94.0103,VALID,0,VALID,23.6922,VALID,32,VALID,0,
2010-02-21, 03:48:04,VALID,1011.63,VALID,0,VALID,94.0179,VALID,0,VALID,23.694,VALID,32,VALID,0,
2010-02-21, 03:49:04,VALID,1011.59,VALID,0,VALID,94.0103,VALID,0,VALID,23.6745,VALID,32,VALID,0,
2010-02-21, 03:50:04,VALID,1011.6,VALID,0,VALID,93.995,VALID,0,VALID,23.694,VALID,32,VALID,0,
2010-02-21, 03:51:04,VALID,1011.59,VALID,0,VALID,93.995,VALID,0,VALID,23.6727,VALID,32,VALID,0,
2010-02-21, 03:52:04,VALID,1011.59,VALID,0,VALID,94.0027,VALID,0,VALID,23.7135,VALID,32,VALID,0,
2010-02-21, 03:53:04,VALID,1011.61,VALID,0,VALID,94.0179,VALID,0,VALID,23.694,VALID,32,VALID,0,
2010-02-21, 03:54:04,VALID,1011.61,VALID,0,VALID,93.9798,VALID,0,VALID,23.7135,VALID,32,VALID,0,
2010-02-21, 03:55:04,VALID,1011.62,VALID,0,VALID,93.995,VALID,0,VALID,23.7135,VALID,32,VALID,0,
2010-02-21, 03:56:04,VALID,1011.64,VALID,0,VALID,93.9722,VALID,0,VALID,23.7135,VALID,32,VALID,0,
2010-02-21, 03:57:04,VALID,1011.63,VALID,0,VALID,93.9722,VALID,0,VALID,23.7135,VALID,32,VALID,0,
2010-02-21, 03:58:04,VALID,1011.65,VALID,0,VALID,93.995,VALID,0,VALID,23.7135,VALID,32,VALID,0,